| time (UTC) | temp F | wind direction | speed knots | gust knots | rain 1hr in | rain 24hr in | rain mn in | humidity % | barometer mb |
| 20260504215252 | 75 | 207 | 5.2 | 8.7 | 0.00 | 0.00 | 0.00 | 31 | 1005.8 |
| 20260504214748 | 75 | 254 | 5.2 | 6.1 | 0.00 | 0.00 | 0.00 | 32 | 1005.6 |
| 20260504214244 | 75 | 230 | 0.9 | 0.9 | 0.00 | 0.00 | 0.00 | 32 | 1005.5 |
| 20260504213741 | 74 | 238 | 4.3 | 5.2 | 0.00 | 0.00 | 0.00 | 29 | 1005.5 |
| 20260504213237 | 75 | 273 | 9.6 | 12.2 | 0.00 | 0.00 | 0.00 | 29 | 1005.4 |
| 20260504212735 | 75 | 244 | 1.7 | 2.6 | 0.00 | 0.00 | 0.00 | 30 | 1005.7 |
| 20260504212231 | 74 | 269 | 3.5 | 4.3 | 0.00 | 0.00 | 0.00 | 30 | 1005.7 |
| 20260504211729 | 75 | 249 | 4.3 | 5.2 | 0.00 | 0.00 | 0.00 | 30 | 1005.5 |
| 20260504211225 | 74 | 242 | 0.9 | 1.7 | 0.00 | 0.00 | 0.00 | 29 | 1005.9 |
| 20260504210722 | 75 | 247 | 5.2 | 7.0 | 0.00 | 0.00 | 0.00 | 32 | 1005.5 |
| 20260504210219 | 75 | 336 | 3.5 | 5.2 | 0.00 | 0.00 | 0.00 | 30 | 1005.6 |
| 20260504205716 | 75 | 250 | 5.2 | 8.7 | 0.00 | 0.00 | 0.00 | 32 | 1005.7 |
| 20260504205214 | 73 | 343 | 7.0 | 9.6 | 0.00 | 0.00 | 0.00 | 31 | 1005.6 |
| 20260504204712 | 74 | 279 | 7.0 | 7.8 | 0.00 | 0.00 | 0.00 | 32 | 1005.7 |
| 20260504204210 | 75 | 218 | 3.5 | 5.2 | 0.00 | 0.00 | 0.00 | 32 | 1006.0 |
| 20260504203709 | 73 | 225 | 0.9 | 2.6 | 0.00 | 0.00 | 0.00 | 32 | 1005.9 |
| 20260504203207 | 74 | 243 | 2.6 | 6.1 | 0.00 | 0.00 | 0.00 | 33 | 1005.8 |
| 20260504202706 | 75 | 206 | 0.9 | 1.7 | 0.00 | 0.00 | 0.00 | 32 | 1005.6 |
| 20260504202203 | 73 | 26 | 0.9 | 1.7 | 0.00 | 0.00 | 0.00 | 32 | 1006.1 |
| 20260504201700 | 73 | 175 | 3.5 | 5.2 | 0.00 | 0.00 | 0.00 | 35 | 1006.1 |
| 20260504201158 | 74 | 211 | 7.8 | 9.6 | 0.00 | 0.00 | 0.00 | 32 | 1006.3 |
| 20260504200655 | 74 | 266 | 6.1 | 7.0 | 0.00 | 0.00 | 0.00 | 34 | 1006.3 |
| 20260504200151 | 75 | 329 | 3.5 | 6.1 | 0.00 | 0.00 | 0.00 | 36 | 1006.5 |
| 20260504195647 | 74 | 265 | 0.9 | 2.6 | 0.00 | 0.00 | 0.00 | 34 | 1006.3 |
| 20260504195143 | 74 | 232 | 2.6 | 4.3 | 0.00 | 0.00 | 0.00 | 35 | 1006.5 |
| 20260504194641 | 74 | 233 | 0.0 | 0.9 | 0.00 | 0.00 | 0.00 | 34 | 1006.6 |
| 20260504194137 | 73 | 251 | 3.5 | 5.2 | 0.00 | 0.00 | 0.00 | 34 | 1007.1 |
| 20260504193633 | 74 | 219 | 5.2 | 7.8 | 0.00 | 0.00 | 0.00 | 34 | 1006.9 |
| 20260504193131 | 72 | 227 | 0.0 | 0.0 | 0.00 | 0.00 | 0.00 | 34 | 1006.6 |
| 20260504192629 | 74 | 242 | 8.7 | 9.6 | 0.00 | 0.00 | 0.00 | 35 | 1007.0 |
| 20260504192127 | 73 | 303 | 5.2 | 7.0 | 0.00 | 0.00 | 0.00 | 35 | 1007.0 |
| 20260504191625 | 72 | 255 | 3.5 | 5.2 | 0.00 | 0.00 | 0.00 | 39 | 1007.3 |
| 20260504191121 | 72 | 308 | 9.6 | 9.6 | 0.00 | 0.00 | 0.00 | 35 | 1007.3 |
| 20260504190617 | 72 | 236 | 4.3 | 5.2 | 0.00 | 0.00 | 0.00 | 35 | 1007.4 |
| 20260504190114 | 73 | 176 | 4.3 | 5.2 | 0.00 | 0.00 | 0.00 | 39 | 1007.2 |
| 20260504185610 | 72 | 93 | 1.7 | 4.3 | 0.00 | 0.00 | 0.00 | 39 | 1007.4 |
| 20260504185107 | 71 | 159 | 10.4 | 18.2 | 0.00 | 0.00 | 0.00 | 37 | 1007.5 |
| 20260504184603 | 71 | 296 | 3.5 | 6.1 | 0.00 | 0.00 | 0.00 | 37 | 1007.5 |
| 20260504184058 | 70 | 216 | 3.5 | 5.2 | 0.00 | 0.00 | 0.00 | 38 | 1007.6 |
| 20260504183555 | 71 | 240 | 7.8 | 9.6 | 0.00 | 0.00 | 0.00 | 38 | 1007.8 |
| 20260504183053 | 71 | 313 | 6.1 | 7.8 | 0.00 | 0.00 | 0.00 | 37 | 1007.7 |
| 20260504182550 | 72 | 233 | 4.3 | 6.1 | 0.00 | 0.00 | 0.00 | 37 | 1007.8 |
| 20260504182048 | 69 | 225 | 2.6 | 4.3 | 0.00 | 0.00 | 0.00 | 40 | 1007.8 |
| 20260504181544 | 70 | 249 | 4.3 | 9.6 | 0.00 | 0.00 | 0.00 | 39 | 1008.3 |
| 20260504181043 | 71 | 235 | 7.0 | 12.2 | 0.00 | 0.00 | 0.00 | 39 | 1008.0 |
| 20260504180541 | 71 | 224 | 2.6 | 4.3 | 0.00 | 0.00 | 0.00 | 38 | 1008.4 |
| 20260504180040 | 71 | 259 | 3.5 | 5.2 | 0.00 | 0.00 | 0.00 | 38 | 1007.9 |
| 20260504175537 | 69 | 304 | 5.2 | 7.8 | 0.00 | 0.00 | 0.00 | 41 | 1008.3 |
| 20260504175034 | 71 | 302 | 9.6 | 11.3 | 0.00 | 0.00 | 0.00 | 38 | 1008.2 |
| 20260504174532 | 69 | 231 | 0.0 | 0.9 | 0.00 | 0.00 | 0.00 | 41 | 1008.4 |
| 20260504174028 | 69 | 236 | 6.1 | 7.0 | 0.00 | 0.00 | 0.00 | 41 | 1008.3 |
| 20260504173525 | 69 | 221 | 10.4 | 13.0 | 0.00 | 0.00 | 0.00 | 42 | 1008.0 |
| 20260504173022 | 69 | 11 | 7.8 | 11.3 | 0.00 | 0.00 | 0.00 | 40 | 1008.0 |
| 20260504172518 | 69 | 306 | 7.8 | 9.6 | 0.00 | 0.00 | 0.00 | 41 | 1008.5 |
| 20260504172015 | 67 | 289 | 2.6 | 5.2 | 0.00 | 0.00 | 0.00 | 45 | 1008.2 |
| 20260504171512 | 67 | 273 | 12.2 | 14.8 | 0.00 | 0.00 | 0.00 | 45 | 1008.1 |
| 20260504171009 | 67 | 266 | 5.2 | 6.1 | 0.00 | 0.00 | 0.00 | 45 | 1008.1 |
| 20260504170504 | 68 | 244 | 4.3 | 7.0 | 0.00 | 0.00 | 0.00 | 46 | 1008.3 |
| 20260504160425 | 64 | 264 | 7.0 | 8.7 | 0.00 | 0.00 | 0.00 | 50 | 1009.1 |
| 20260504150849 | 62 | 239 | 0.9 | 1.7 | 0.00 | 0.00 | 0.00 | 54 | 1009.4 |
| 20260504150345 | 62 | 229 | 4.3 | 6.1 | 0.00 | 0.00 | 0.00 | 50 | 1009.7 |
| 20260504141315 | 59 | 176 | 2.6 | 5.2 | 0.00 | 0.00 | 0.00 | 53 | 1010.0 |
| 20260504140812 | 59 | 234 | 7.0 | 7.8 | 0.00 | 0.00 | 0.00 | 52 | 1010.2 |
| 20260504140308 | 60 | 208 | 0.0 | 0.9 | 0.00 | 0.00 | 0.00 | 52 | 1010.2 |
| 20260504130736 | 54 | 244 | 1.7 | 2.6 | 0.00 | 0.00 | 0.00 | 56 | 1010.7 |
| 20260504130232 | 54 | 232 | 1.7 | 1.7 | 0.00 | 0.00 | 0.00 | 57 | 1011.0 |
| 20260504120156 | 51 | 188 | 7.8 | 7.8 | 0.00 | 0.00 | 0.00 | 60 | 1010.9 |
| 20260504110623 | 48 | 223 | 0.0 | 0.0 | 0.00 | 0.00 | 0.00 | 63 | 1010.6 |
| 20260504110119 | 48 | 226 | 0.9 | 0.9 | 0.00 | 0.00 | 0.00 | 63 | 1010.6 |
| 20260504100545 | 48 | 245 | 0.0 | 0.0 | 0.00 | 0.00 | 0.00 | 63 | 1010.7 |
| 20260504081939 | 48 | 269 | 0.9 | 1.7 | 0.00 | 0.00 | 0.00 | 62 | 1011.5 |
| 20260504081436 | 48 | 186 | 0.9 | 1.7 | 0.00 | 0.00 | 0.00 | 62 | 1011.2 |
| 20260504080931 | 48 | 225 | 0.9 | 0.9 | 0.00 | 0.00 | 0.00 | 62 | 1011.5 |
| 20260504080429 | 48 | 225 | 0.9 | 0.9 | 0.00 | 0.00 | 0.00 | 62 | 1011.5 |
| 20260504070356 | 46 | 120 | 2.6 | 2.6 | 0.00 | 0.00 | 0.00 | 68 | 1011.4 |
| 20260504050744 | 39 | 224 | 0.0 | 0.0 | 0.00 | 0.00 | 0.00 | 85 | 1012.1 |
| 20260504050241 | 39 | 223 | 2.6 | 2.6 | 0.00 | 0.00 | 0.00 | 86 | 1011.9 |
| 20260504045738 | 39 | 207 | 0.0 | 0.0 | 0.00 | 0.00 | 0.00 | 86 | 1012.0 |
| 20260504045233 | 40 | 223 | 0.0 | 0.9 | 0.00 | 0.00 | 0.00 | 85 | 1011.9 |
| 20260504044731 | 39 | 185 | 0.9 | 0.9 | 0.00 | 0.00 | 0.00 | 85 | 1012.0 |
| 20260504044228 | 40 | 186 | 1.7 | 1.7 | 0.00 | 0.00 | 0.00 | 83 | 1012.1 |
| 20260504043725 | 40 | 180 | 1.7 | 1.7 | 0.00 | 0.00 | 0.00 | 85 | 1012.1 |
| 20260504043222 | 41 | 216 | 0.0 | 0.0 | 0.00 | 0.00 | 0.00 | 84 | 1012.0 |
| 20260504042720 | 41 | 205 | 0.9 | 0.9 | 0.00 | 0.00 | 0.00 | 81 | 1012.2 |
| 20260504042216 | 41 | 192 | 1.7 | 1.7 | 0.00 | 0.00 | 0.00 | 82 | 1012.1 |
| 20260504041712 | 42 | 215 | 0.0 | 0.0 | 0.00 | 0.00 | 0.00 | 80 | 1012.2 |
| 20260504041208 | 42 | 225 | 1.7 | 1.7 | 0.00 | 0.00 | 0.00 | 79 | 1012.3 |
| 20260504040705 | 43 | 221 | 0.0 | 0.0 | 0.00 | 0.00 | 0.00 | 76 | 1011.9 |
| 20260504040202 | 44 | 214 | 1.7 | 1.7 | 0.00 | 0.00 | 0.00 | 73 | 1012.1 |
| 20260504035658 | 43 | 227 | 1.7 | 1.7 | 0.00 | 0.00 | 0.00 | 75 | 1012.1 |
| 20260504035155 | 44 | 220 | 0.9 | 1.7 | 0.00 | 0.00 | 0.00 | 75 | 1012.1 |
| 20260504034653 | 44 | 228 | 0.9 | 0.9 | 0.00 | 0.00 | 0.00 | 74 | 1011.9 |
| 20260504034150 | 45 | 226 | 1.7 | 1.7 | 0.00 | 0.00 | 0.00 | 73 | 1012.0 |
| 20260504033647 | 45 | 222 | 0.0 | 0.9 | 0.00 | 0.00 | 0.00 | 71 | 1012.2 |
| 20260504033144 | 44 | 209 | 2.6 | 2.6 | 0.00 | 0.00 | 0.00 | 73 | 1012.2 |
| 20260504032641 | 44 | 209 | 1.7 | 2.6 | 0.00 | 0.00 | 0.00 | 73 | 1012.0 |
| 20260504032138 | 44 | 194 | 1.7 | 1.7 | 0.00 | 0.00 | 0.00 | 74 | 1012.2 |
| 20260504031635 | 44 | 213 | 1.7 | 1.7 | 0.00 | 0.00 | 0.00 | 75 | 1012.2 |
| 20260504031132 | 44 | 195 | 1.7 | 1.7 | 0.00 | 0.00 | 0.00 | 74 | 1012.2 |
| 20260504030628 | 45 | 212 | 0.0 | 0.9 | 0.00 | 0.00 | 0.00 | 72 | 1012.3 |
| 20260504030125 | 44 | 213 | 1.7 | 1.7 | 0.00 | 0.00 | 0.00 | 74 | 1012.2 |
| 20260504025622 | 44 | 208 | 0.9 | 0.9 | 0.00 | 0.00 | 0.00 | 77 | 1011.9 |
| 20260504025119 | 45 | 201 | 0.0 | 0.0 | 0.00 | 0.00 | 0.00 | 72 | 1012.3 |
| 20260504024616 | 46 | 216 | 0.9 | 0.9 | 0.00 | 0.00 | 0.00 | 72 | 1012.1 |
| 20260504024113 | 45 | 191 | 1.7 | 1.7 | 0.00 | 0.00 | 0.00 | 74 | 1012.2 |
| 20260504023609 | 46 | 190 | 1.7 | 1.7 | 0.00 | 0.00 | 0.00 | 74 | 1012.1 |
| 20260504023105 | 46 | 217 | 0.0 | 0.0 | 0.00 | 0.00 | 0.00 | 72 | 1012.2 |
| 20260504022602 | 46 | 208 | 0.9 | 0.9 | 0.00 | 0.00 | 0.00 | 70 | 1012.1 |
| 20260504022058 | 46 | 211 | 0.0 | 0.0 | 0.00 | 0.00 | 0.00 | 70 | 1012.1 |
| 20260504021556 | 47 | 226 | 0.0 | 0.9 | 0.00 | 0.00 | 0.00 | 69 | 1012.0 |
| 20260504021052 | 47 | 202 | 0.0 | 0.0 | 0.00 | 0.00 | 0.00 | 69 | 1012.1 |
| 20260504020549 | 48 | 219 | 0.0 | 0.0 | 0.00 | 0.00 | 0.00 | 63 | 1012.0 |
| 20260504020045 | 47 | 217 | 0.0 | 0.9 | 0.00 | 0.00 | 0.00 | 67 | 1012.0 |
| 20260504015542 | 48 | 190 | 0.9 | 0.9 | 0.00 | 0.00 | 0.00 | 71 | 1012.3 |
| 20260504015038 | 49 | 211 | 0.0 | 0.0 | 0.00 | 0.00 | 0.00 | 63 | 1012.3 |
| 20260504014534 | 49 | 212 | 0.0 | 0.0 | 0.00 | 0.00 | 0.00 | 59 | 1012.3 |
| 20260504014032 | 50 | 213 | 0.0 | 0.0 | 0.00 | 0.00 | 0.00 | 58 | 1012.3 |
| 20260504013529 | 51 | 219 | 0.0 | 0.0 | 0.00 | 0.00 | 0.00 | 57 | 1012.3 |
| 20260504013026 | 51 | 220 | 0.0 | 0.0 | 0.00 | 0.00 | 0.00 | 55 | 1012.1 |
| 20260504012524 | 53 | 211 | 0.0 | 0.0 | 0.00 | 0.00 | 0.00 | 51 | 1012.3 |
| 20260504012022 | 54 | 217 | 0.0 | 0.0 | 0.00 | 0.00 | 0.00 | 47 | 1011.8 |
| 20260504011518 | 53 | 222 | 0.0 | 0.0 | 0.00 | 0.00 | 0.00 | 47 | 1011.9 |
| 20260504011014 | 54 | 220 | 0.0 | 0.0 | 0.00 | 0.00 | 0.00 | 46 | 1012.0 |
| 20260504010510 | 54 | 295 | 0.9 | 2.6 | 0.00 | 0.00 | 0.00 | 45 | 1011.7 |
| 20260504010006 | 55 | 269 | 2.6 | 2.6 | 0.00 | 0.00 | 0.00 | 44 | 1011.7 |
| 20260504005503 | 55 | 259 | 2.6 | 2.6 | 0.00 | 0.00 | 0.00 | 44 | 1011.9 |
| 20260504005000 | 55 | 344 | 3.5 | 4.3 | 0.00 | 0.00 | 0.00 | 45 | 1011.8 |
| 20260504004458 | 55 | 331 | 4.3 | 7.8 | 0.00 | 0.00 | 0.00 | 43 | 1012.0 |
| 20260504003954 | 55 | 264 | 4.3 | 6.1 | 0.00 | 0.00 | 0.00 | 43 | 1011.5 |
| 20260504003450 | 55 | 261 | 4.3 | 5.2 | 0.00 | 0.00 | 0.00 | 44 | 1011.9 |
| 20260504002948 | 55 | 268 | 3.5 | 4.3 | 0.00 | 0.00 | 0.00 | 42 | 1011.6 |
| 20260504002445 | 55 | 253 | 4.3 | 6.1 | 0.00 | 0.00 | 0.00 | 44 | 1011.8 |
| 20260504001942 | 55 | 267 | 2.6 | 2.6 | 0.00 | 0.00 | 0.00 | 45 | 1011.8 |
| 20260504001439 | 55 | 272 | 2.6 | 2.6 | 0.00 | 0.00 | 0.00 | 44 | 1011.7 |
| 20260504000936 | 55 | 323 | 5.2 | 7.8 | 0.00 | 0.00 | 0.00 | 44 | 1011.9 |
| 20260504000433 | 55 | 279 | 2.6 | 2.6 | 0.00 | 0.00 | 0.00 | 44 | 1011.8 |
| 20260503235930 | 55 | 300 | 3.5 | 4.3 | 0.00 | 0.00 | 0.00 | 43 | 1011.7 |
| 20260503235428 | 56 | 309 | 4.3 | 6.1 | 0.00 | 0.00 | 0.00 | 43 | 1011.8 |
| 20260503234925 | 56 | 291 | 4.3 | 5.2 | 0.00 | 0.00 | 0.00 | 44 | 1011.6 |
| 20260503234422 | 56 | 302 | 7.0 | 7.8 | 0.00 | 0.00 | 0.00 | 41 | 1011.4 |
| 20260503233920 | 56 | 306 | 3.5 | 4.3 | 0.00 | 0.00 | 0.00 | 42 | 1011.4 |
| 20260503233417 | 56 | 293 | 1.7 | 2.6 | 0.00 | 0.00 | 0.00 | 43 | 1011.6 |
| 20260503232913 | 56 | 270 | 4.3 | 5.2 | 0.00 | 0.00 | 0.00 | 41 | 1011.4 |
| 20260503232410 | 56 | 266 | 2.6 | 4.3 | 0.00 | 0.00 | 0.00 | 43 | 1011.6 |
| 20260503231908 | 56 | 292 | 0.0 | 0.0 | 0.00 | 0.00 | 0.00 | 42 | 1011.4 |
| 20260503231405 | 57 | 229 | 0.0 | 0.0 | 0.00 | 0.00 | 0.00 | 41 | 1011.6 |
| 20260503230901 | 57 | 298 | 5.2 | 6.1 | 0.00 | 0.00 | 0.00 | 40 | 1011.3 |
| 20260503230358 | 57 | 292 | 3.5 | 4.3 | 0.00 | 0.00 | 0.00 | 41 | 1011.4 |
| 20260503225856 | 57 | 247 | 1.7 | 1.7 | 0.00 | 0.00 | 0.00 | 42 | 1011.5 |
| 20260503225351 | 57 | 355 | 4.3 | 5.2 | 0.00 | 0.00 | 0.00 | 40 | 1011.3 |
| 20260503224848 | 57 | 255 | 9.6 | 12.2 | 0.00 | 0.00 | 0.00 | 39 | 1011.4 |
| 20260503224345 | 57 | 322 | 4.3 | 6.1 | 0.00 | 0.00 | 0.00 | 41 | 1011.4 |
| 20260503223843 | 58 | 321 | 7.8 | 9.6 | 0.00 | 0.00 | 0.00 | 39 | 1011.3 |
| 20260503223340 | 58 | 327 | 5.2 | 7.0 | 0.00 | 0.00 | 0.00 | 39 | 1011.3 |
| 20260503222836 | 58 | 319 | 5.2 | 7.8 | 0.00 | 0.00 | 0.00 | 40 | 1011.3 |
| 20260503222335 | 59 | 325 | 4.3 | 5.2 | 0.00 | 0.00 | 0.00 | 40 | 1011.3 |
| 20260503221832 | 58 | 311 | 7.8 | 11.3 | 0.00 | 0.00 | 0.00 | 39 | 1011.3 |
| 20260503221331 | 57 | 258 | 6.1 | 7.0 | 0.00 | 0.00 | 0.00 | 40 | 1011.3 |
| 20260503220826 | 58 | 314 | 9.6 | 15.6 | 0.00 | 0.00 | 0.00 | 39 | 1011.2 |
| 20260503220323 | 58 | 285 | 7.8 | 8.7 | 0.00 | 0.00 | 0.00 | 39 | 1011.0 |
| 20260503215820 | 58 | 266 | 4.3 | 6.1 | 0.00 | 0.00 | 0.00 | 40 | 1011.3 |